Regional Weather Roundup
Issued by NWS

Home | Current Version | Previous Version | Text Only | Print | Product List | Glossary On
Versions: 1 2 3 4 5 6 7 8 9 10 11 12 13 14 15 16 17 18 19 20 21 22 23 24 25 26 27 28 29 30 31 32 33 34 35 36 37 38 39 40 41 42 43 44 45 46 47 48 49 50
000
ASUS45 KCYS 271210
RWRWY

WYOMING REGIONAL WEATHER ROUNDUP
NATIONAL WEATHER SERVICE CHEYENNE WY
500 AM MST FRI FEB 27 2015

NOTE:  "FAIR" INDICATES FEW OR NO CLOUDS BELOW 12,000 FEET
WITH NO SIGNIFICANT WEATHER AND/OR OBSTRUCTIONS TO VISIBILITY.

WYZ001-271300-
YELLOWSTONE NATIONAL PARK

CITY           SKY/WX    TMP DP  RH WIND       PRES   REMARKS
LK YELLOWSTONE   N/A     -8 -13  78 CALM      29.79F
6HR MIN TEMP: -13; 6HR MAX TEMP:  -5;

W YELLOWSTONE  NOT AVBL

$$
WYZ002>013-054>058-071-098>099-271300-
NORTHERN WYOMING

CITY           SKY/WX    TMP DP  RH WIND       PRES   REMARKS
JACKSON        CLOUDY     7   1  78 N6        29.84F WCI  -3
CODY           FAIR       1   0  92 S3        29.91F
GREYBULL       FAIR      11   2  67 E6        30.02F WCI   1
6HR MIN TEMP:  11; 6HR MAX TEMP:  17;

WORLAND        FAIR       3  -2  79 E8        29.99F WCI -10
6HR MIN TEMP:   2; 6HR MAX TEMP:  16;

SHERIDAN       FAIR     -10 -17  71 CALM      30.01F
6HR MIN TEMP: -12; 6HR MAX TEMP:  -6;

BUFFALO        FAIR      -2  -6  83 S8        29.93F WCI -17
6HR MIN TEMP:  -3; 6HR MAX TEMP:   7;

GILLETTE       FAIR       3  -2  79 S20       30.02F WCI -18
6HR MIN TEMP:  -1; 6HR MAX TEMP:   3;

HULETT         FAIR       5  -2  72 S7        30.07F WCI  -7
NEWCASTLE      CLOUDY     5  -6  61 SE13      30.14F WCI -12

$$
WYZ014>020-022>026-101>103-271300-
CENTRAL WYOMING

CITY           SKY/WX    TMP DP  RH WIND       PRES   REMARKS
BIG PINEY      CLOUDY    10   4  76 E3        29.86S
6HR MIN TEMP:   9; 6HR MAX TEMP:  12; 6HR PCP: TRACE;

PINEDALE       CLOUDY     9   5  85 NW3       29.87R
DUBOIS         FAIR       0  -6  78 CALM      29.77F
LANDER         CLOUDY    -2  -7  79 CALM      29.91F
6HR MIN TEMP:  -2; 6HR MAX TEMP:   4;

RIVERTON       FAIR      -2  -7  79 W3        29.93F
6HR MIN TEMP:  -5; 6HR MAX TEMP:   5;

CASPER         FAIR      -4  -8  83 SE5       29.96F WCI -15
6HR MIN TEMP:  -5; 6HR MAX TEMP:   1;

DOUGLAS        FAIR       4   0  83 SE20G25   30.02F WCI -17
6HR MIN TEMP:   3; 6HR MAX TEMP:   8;


$$
WYZ021-027>030-104>119-271300-
SOUTHERN WYOMING

CITY           SKY/WX    TMP DP  RH WIND       PRES   REMARKS
EVANSTON       CLOUDY    13  10  88 E9        29.81F WCI   1
6HR MIN TEMP:  13; 6HR MAX TEMP:  21;

FORT BRIDGER   LGT SNOW  11   9  94 E3        29.87F
ROCK SPRINGS   CLOUDY     3  -1  83 SE5       29.86F WCI  -6
6HR MIN TEMP:   2; 6HR MAX TEMP:   6;

DIXON          FAIR       6   2  84 CALM      29.89S
RAWLINS        FAIR       0  -5  79 NE8       29.85S WCI -14
6HR MIN TEMP:   0; 6HR MAX TEMP:   4;

SARATOGA       FAIR      -6  -9  84 MISG      29.85R
LARAMIE        FAIR      -1  -6  79 S17       29.82F WCI -22
6HR MIN TEMP:  -1; 6HR MAX TEMP:   3;

CHEYENNE       CLOUDY     3  -2  79 S10       29.95F HAZE    WCI -12
6HR MIN TEMP:   2; 6HR MAX TEMP:   6; 6HR PCP:  0.01;

TORRINGTON     LGT SNOW   7   1  76 SE15      30.15F WCI -10
6HR MIN TEMP:   6; 6HR MAX TEMP:   8; 6HR PCP: TRACE;

PINE BLUFFS    CLOUDY     5   1  85 MISG      30.07S

$$


USA.gov is the U.S. government's official web portal to all federal, state and local government web resources and services.